| time (UTC) | temp F | wind direction | speed knots | gust knots | rain 1hr in | rain 24hr in | rain mn in | humidity % | barometer mb |
| 20260507160142 | 63 | 302 | 0.0 | 0.0 | 0.00 | 0.00 | 0.00 | 81 | 1015.3 |
| 20260507155114 | 63 | 296 | 0.0 | 0.0 | 0.00 | 0.00 | 0.00 | 81 | 1015.4 |
| 20260507154040 | 63 | 296 | 0.0 | 0.0 | 0.00 | 0.00 | 0.00 | 82 | 1015.4 |
| 20260507153008 | 62 | 296 | 0.0 | 0.0 | 0.00 | 0.00 | 0.00 | 84 | 1015.3 |
| 20260507151939 | 62 | 296 | 0.0 | 0.0 | 0.00 | 0.00 | 0.00 | 85 | 1015.2 |
| 20260507150948 | 62 | 296 | 0.0 | 0.0 | 0.00 | 0.00 | 0.00 | 86 | 1015.2 |
| 20260507145928 | 61 | 297 | 0.0 | 0.0 | 0.00 | 0.00 | 0.00 | 87 | 1015.2 |
| 20260507144924 | 61 | 297 | 0.0 | 0.0 | 0.00 | 0.00 | 0.00 | 88 | 1015.0 |
| 20260507143935 | 60 | 297 | 0.0 | 0.0 | 0.00 | 0.00 | 0.00 | 89 | 1015.1 |
| 20260507142908 | 60 | 297 | 0.0 | 0.0 | 0.00 | 0.00 | 0.00 | 90 | 1014.9 |
| 20260507140744 | 59 | 297 | 0.0 | 0.0 | 0.00 | 0.00 | 0.00 | 91 | 1014.8 |
| 20260507135755 | 58 | 297 | 0.0 | 0.0 | 0.00 | 0.00 | 0.00 | 92 | 1014.7 |
| 20260507134727 | 58 | 297 | 0.0 | 0.0 | 0.00 | 0.00 | 0.00 | 92 | 1014.7 |
| 20260507133658 | 58 | 297 | 0.0 | 0.0 | 0.00 | 0.00 | 0.00 | 92 | 1014.5 |
| 20260507132718 | 57 | 297 | 0.0 | 0.0 | 0.00 | 0.00 | 0.00 | 92 | 1014.6 |
| 20260507125529 | 57 | 297 | 0.0 | 0.0 | 0.00 | 0.00 | 0.00 | 92 | 1014.6 |
| 20260507124505 | 57 | 297 | 0.0 | 0.0 | 0.00 | 0.00 | 0.00 | 92 | 1014.5 |
| 20260507123530 | 56 | 297 | 0.0 | 0.0 | 0.00 | 0.00 | 0.00 | 92 | 1014.3 |
| 20260507122457 | 56 | 297 | 0.0 | 0.0 | 0.00 | 0.00 | 0.00 | 93 | 1014.3 |
| 20260507120335 | 56 | 297 | 0.0 | 0.0 | 0.00 | 0.00 | 0.00 | 93 | 1014.2 |
| 20260507115307 | 56 | 297 | 0.0 | 0.0 | 0.00 | 0.00 | 0.00 | 93 | 1014.2 |
| 20260507114255 | 56 | 297 | 0.0 | 0.0 | 0.00 | 0.00 | 0.00 | 94 | 1014.2 |
| 20260507113250 | 56 | 297 | 0.0 | 0.0 | 0.00 | 0.00 | 0.00 | 93 | 1014.2 |
| 20260507112301 | 56 | 297 | 0.0 | 0.0 | 0.00 | 0.00 | 0.00 | 93 | 1014.3 |
| 20260507111242 | 56 | 297 | 0.0 | 0.0 | 0.00 | 0.00 | 0.00 | 93 | 1014.4 |
| 20260507110221 | 55 | 297 | 0.0 | 0.0 | 0.00 | 0.00 | 0.00 | 94 | 1014.4 |
| 20260507105203 | 55 | 297 | 0.0 | 0.0 | 0.00 | 0.00 | 0.00 | 93 | 1014.5 |
| 20260507103100 | 55 | 297 | 0.0 | 0.0 | 0.00 | 0.00 | 0.00 | 93 | 1014.6 |
| 20260507102031 | 56 | 297 | 0.0 | 0.0 | 0.00 | 0.00 | 0.00 | 93 | 1014.7 |
| 20260507101022 | 56 | 297 | 0.0 | 0.0 | 0.00 | 0.00 | 0.00 | 93 | 1014.7 |
| 20260507094855 | 56 | 297 | 0.0 | 0.0 | 0.00 | 0.00 | 0.00 | 94 | 1014.8 |
| 20260507093835 | 56 | 297 | 0.0 | 0.0 | 0.00 | 0.00 | 0.00 | 93 | 1014.9 |
| 20260507092802 | 56 | 297 | 0.0 | 0.0 | 0.00 | 0.00 | 0.00 | 94 | 1014.9 |
| 20260507091731 | 56 | 297 | 0.0 | 0.0 | 0.00 | 0.00 | 0.00 | 93 | 1015.1 |
| 20260507085605 | 57 | 297 | 0.0 | 0.0 | 0.00 | 0.00 | 0.00 | 94 | 1015.3 |
| 20260507084604 | 56 | 297 | 0.0 | 0.0 | 0.00 | 0.00 | 0.00 | 94 | 1015.4 |
| 20260507083530 | 56 | 297 | 0.0 | 0.0 | 0.00 | 0.00 | 0.00 | 93 | 1015.4 |
| 20260507082505 | 56 | 297 | 0.0 | 0.0 | 0.00 | 0.00 | 0.00 | 93 | 1015.5 |
| 20260507081519 | 56 | 297 | 0.0 | 0.0 | 0.00 | 0.00 | 0.00 | 93 | 1015.6 |
| 20260507080458 | 56 | 297 | 0.0 | 0.0 | 0.00 | 0.00 | 0.00 | 92 | 1015.7 |
| 20260507073225 | 57 | 297 | 0.0 | 0.0 | 0.00 | 0.00 | 0.00 | 92 | 1015.8 |
| 20260507072241 | 57 | 297 | 0.0 | 0.0 | 0.00 | 0.00 | 0.00 | 92 | 1015.8 |
| 20260507071230 | 57 | 297 | 0.0 | 0.0 | 0.00 | 0.00 | 0.00 | 92 | 1015.8 |
| 20260507065105 | 57 | 297 | 0.0 | 0.0 | 0.00 | 0.00 | 0.00 | 92 | 1016.0 |
| 20260507064108 | 57 | 297 | 0.0 | 0.0 | 0.00 | 0.00 | 0.00 | 92 | 1016.0 |
| 20260507063124 | 58 | 297 | 0.0 | 0.0 | 0.00 | 0.00 | 0.00 | 91 | 1016.0 |
| 20260507062112 | 58 | 297 | 0.0 | 0.0 | 0.00 | 0.00 | 0.00 | 91 | 1016.0 |
| 20260507061114 | 58 | 297 | 0.0 | 0.0 | 0.00 | 0.00 | 0.00 | 91 | 1016.0 |
| 20260507060118 | 58 | 297 | 0.0 | 0.0 | 0.00 | 0.00 | 0.00 | 91 | 1016.1 |
| 20260507055136 | 59 | 297 | 0.0 | 0.0 | 0.00 | 0.00 | 0.00 | 90 | 1015.9 |
| 20260507054149 | 59 | 297 | 0.0 | 0.0 | 0.00 | 0.00 | 0.00 | 90 | 1016.0 |
| 20260507053204 | 59 | 297 | 0.0 | 0.0 | 0.00 | 0.00 | 0.00 | 90 | 1016.0 |
| 20260507051051 | 59 | 297 | 0.0 | 0.0 | 0.00 | 0.00 | 0.00 | 89 | 1016.0 |
| 20260507050022 | 60 | 297 | 0.0 | 0.0 | 0.00 | 0.00 | 0.00 | 89 | 1016.0 |
| 20260507045035 | 60 | 297 | 0.0 | 0.0 | 0.00 | 0.00 | 0.00 | 89 | 1016.0 |
| 20260507044048 | 60 | 297 | 0.0 | 0.0 | 0.00 | 0.00 | 0.00 | 89 | 1015.9 |
| 20260507041837 | 60 | 297 | 0.0 | 0.0 | 0.00 | 0.00 | 0.00 | 88 | 1015.8 |
| 20260507040852 | 60 | 297 | 0.0 | 0.0 | 0.00 | 0.00 | 0.00 | 87 | 1015.7 |
| 20260507035825 | 61 | 297 | 0.0 | 0.0 | 0.00 | 0.00 | 0.00 | 87 | 1015.8 |
| 20260507034826 | 61 | 297 | 0.0 | 0.0 | 0.00 | 0.00 | 0.00 | 86 | 1015.6 |
| 20260507033801 | 61 | 297 | 0.0 | 0.0 | 0.00 | 0.00 | 0.00 | 86 | 1015.5 |
| 20260507032732 | 61 | 297 | 0.0 | 0.0 | 0.00 | 0.00 | 0.00 | 86 | 1015.4 |
| 20260507031743 | 61 | 297 | 0.0 | 0.0 | 0.00 | 0.00 | 0.00 | 85 | 1015.4 |
| 20260507030717 | 61 | 295 | 0.0 | 0.0 | 0.00 | 0.00 | 0.00 | 84 | 1015.3 |
| 20260507025649 | 62 | 295 | 0.9 | 5.2 | 0.00 | 0.00 | 0.00 | 83 | 1015.2 |
| 20260507024700 | 62 | 282 | 0.0 | 5.2 | 0.00 | 0.00 | 0.00 | 83 | 1015.0 |
| 20260507023704 | 62 | 271 | 0.0 | 0.0 | 0.00 | 0.00 | 0.00 | 83 | 1015.0 |
| 20260507021602 | 63 | 319 | 0.0 | 0.0 | 0.00 | 0.00 | 0.00 | 81 | 1014.9 |
| 20260507020627 | 64 | 308 | 0.0 | 0.0 | 0.00 | 0.00 | 0.00 | 80 | 1014.9 |
| 20260507015648 | 65 | 249 | 0.9 | 5.2 | 0.00 | 0.00 | 0.00 | 78 | 1014.8 |
| 20260507014631 | 65 | 295 | 1.7 | 7.8 | 0.00 | 0.00 | 0.00 | 76 | 1014.7 |
| 20260507013558 | 65 | 314 | 1.7 | 8.7 | 0.00 | 0.00 | 0.00 | 75 | 1014.8 |
| 20260507012613 | 65 | 287 | 2.6 | 8.7 | 0.00 | 0.00 | 0.00 | 76 | 1014.8 |
| 20260507011548 | 66 | 271 | 2.6 | 7.8 | 0.00 | 0.00 | 0.00 | 75 | 1014.7 |
| 20260507005342 | 67 | 315 | 2.6 | 7.0 | 0.00 | 0.00 | 0.00 | 72 | 1014.8 |
| 20260507004331 | 67 | 271 | 1.7 | 8.7 | 0.00 | 0.00 | 0.00 | 71 | 1014.8 |
| 20260507003315 | 67 | 263 | 1.7 | 10.4 | 0.00 | 0.00 | 0.00 | 71 | 1014.7 |
| 20260507002338 | 67 | 279 | 2.6 | 10.4 | 0.00 | 0.00 | 0.00 | 70 | 1014.7 |
| 20260507001336 | 68 | 292 | 2.6 | 7.8 | 0.00 | 0.00 | 0.00 | 69 | 1014.5 |
| 20260507000328 | 68 | 313 | 3.5 | 8.7 | 0.00 | 0.00 | 0.00 | 69 | 1014.5 |
| 20260506235330 | 68 | 336 | 2.6 | 8.7 | 0.00 | 0.00 | 0.00 | 68 | 1014.5 |
| 20260506234309 | 68 | 331 | 2.6 | 8.7 | 0.00 | 0.00 | 0.00 | 69 | 1014.4 |
| 20260506233323 | 68 | 290 | 3.5 | 9.6 | 0.00 | 0.00 | 0.00 | 68 | 1014.5 |
| 20260506232336 | 69 | 253 | 2.6 | 10.4 | 0.00 | 0.00 | 0.00 | 67 | 1014.5 |
| 20260506231307 | 68 | 289 | 3.5 | 10.4 | 0.00 | 0.00 | 0.00 | 68 | 1014.6 |
| 20260506230325 | 68 | 252 | 2.6 | 9.6 | 0.00 | 0.00 | 0.00 | 67 | 1014.7 |
| 20260506225336 | 68 | 223 | 2.6 | 9.6 | 0.00 | 0.00 | 0.00 | 69 | 1014.7 |
| 20260506224353 | 69 | 302 | 2.6 | 10.4 | 0.00 | 0.00 | 0.00 | 65 | 1014.8 |
| 20260506223409 | 68 | 249 | 2.6 | 10.4 | 0.00 | 0.00 | 0.00 | 66 | 1014.9 |
| 20260506221229 | 69 | 289 | 3.5 | 12.2 | 0.00 | 0.00 | 0.00 | 65 | 1015.1 |
| 20260506220159 | 68 | 272 | 3.5 | 12.2 | 0.00 | 0.00 | 0.00 | 66 | 1015.1 |
| 20260506215222 | 69 | 279 | 3.5 | 12.2 | 0.00 | 0.00 | 0.00 | 64 | 1015.2 |
| 20260506214222 | 68 | 247 | 4.3 | 10.4 | 0.00 | 0.00 | 0.00 | 66 | 1015.3 |
| 20260506213152 | 69 | 317 | 3.5 | 10.4 | 0.00 | 0.00 | 0.00 | 64 | 1015.4 |
| 20260506212151 | 69 | 306 | 4.3 | 8.7 | 0.00 | 0.00 | 0.00 | 61 | 1015.4 |
| 20260506211154 | 69 | 252 | 3.5 | 10.4 | 0.00 | 0.00 | 0.00 | 62 | 1015.4 |
| 20260506205041 | 70 | 292 | 3.5 | 9.6 | 0.00 | 0.00 | 0.00 | 59 | 1015.5 |
| 20260506202925 | 69 | 269 | 3.5 | 10.4 | 0.00 | 0.00 | 0.00 | 62 | 1015.6 |
| 20260506201900 | 70 | 304 | 3.5 | 9.6 | 0.00 | 0.00 | 0.00 | 60 | 1015.6 |
| 20260506200856 | 69 | 285 | 3.5 | 9.6 | 0.00 | 0.00 | 0.00 | 62 | 1015.7 |
| 20260506195839 | 70 | 273 | 2.6 | 7.8 | 0.00 | 0.00 | 0.00 | 60 | 1015.8 |
| 20260506194838 | 69 | 279 | 2.6 | 10.4 | 0.00 | 0.00 | 0.00 | 60 | 1015.9 |
| 20260506193858 | 70 | 270 | 2.6 | 10.4 | 0.00 | 0.00 | 0.00 | 60 | 1016.1 |
| 20260506192919 | 70 | 250 | 2.6 | 8.7 | 0.00 | 0.00 | 0.00 | 59 | 1016.1 |
| 20260506191911 | 69 | 273 | 2.6 | 10.4 | 0.00 | 0.00 | 0.00 | 59 | 1016.1 |
| 20260506190903 | 69 | 296 | 3.5 | 10.4 | 0.00 | 0.00 | 0.00 | 61 | 1016.2 |
| 20260506185924 | 69 | 332 | 2.6 | 8.7 | 0.00 | 0.00 | 0.00 | 61 | 1016.2 |
| 20260506183730 | 68 | 292 | 3.5 | 9.6 | 0.00 | 0.00 | 0.00 | 61 | 1016.4 |
| 20260506182702 | 69 | 261 | 2.6 | 9.6 | 0.00 | 0.00 | 0.00 | 60 | 1016.5 |
| 20260506181721 | 69 | 248 | 1.7 | 7.8 | 0.00 | 0.00 | 0.00 | 59 | 1016.6 |
| 20260506175629 | 69 | 261 | 1.7 | 8.7 | 0.00 | 0.00 | 0.00 | 58 | 1016.6 |
| 20260506174613 | 68 | 349 | 0.9 | 7.8 | 0.00 | 0.00 | 0.00 | 60 | 1016.7 |
| 20260506172505 | 68 | 283 | 1.7 | 8.7 | 0.00 | 0.00 | 0.00 | 61 | 1016.8 |
| 20260506171518 | 67 | 304 | 1.7 | 8.7 | 0.00 | 0.00 | 0.00 | 63 | 1017.0 |
| 20260506170447 | 68 | 311 | 0.9 | 0.0 | 0.00 | 0.00 | 0.00 | 60 | 1017.0 |
| 20260506165439 | 67 | 239 | 0.0 | 3.5 | 0.00 | 0.00 | 0.00 | 62 | 1016.9 |
| 20260506164432 | 66 | 300 | 0.0 | 3.5 | 0.00 | 0.00 | 0.00 | 64 | 1016.9 |
| 20260506163448 | 65 | 274 | 0.0 | 0.0 | 0.00 | 0.00 | 0.00 | 64 | 1016.9 |
| 20260506162504 | 66 | 275 | 0.9 | 4.3 | 0.00 | 0.00 | 0.00 | 64 | 1016.9 |
| 20260506161516 | 68 | 306 | 0.0 | 0.0 | 0.00 | 0.00 | 0.00 | 60 | 1016.9 |